Time,TemperatureF,DewpointF,PressureIn,WindDirection,WindDirectionDegrees,WindSpeedMPH,WindSpeedGustMPH,Humidity,HourlyPrecipIn,Conditions,Clouds,dailyrainin,SoftwareType,DateUTC
2013-09-26 00:11:00,64.9,64.6,29.72,ESE,112,0.0,-999.0,99,-99.99,,,0.00,Acu-Link.com,2013-09-26 04:11:00,
2013-09-26 00:26:00,64.8,64.5,29.71,SE,135,0.0,-999.0,99,-99.99,,,0.00,Acu-Link.com,2013-09-26 04:26:00,
2013-09-26 00:41:00,64.8,64.5,29.71,ESE,112,0.0,-999.0,99,-99.99,,,0.00,Acu-Link.com,2013-09-26 04:41:00,
2013-09-26 00:56:00,64.8,64.5,29.71,ESE,112,0.0,-999.0,99,-99.99,,,0.00,Acu-Link.com,2013-09-26 04:56:00,
2013-09-26 01:11:00,64.8,64.5,29.71,SSW,202,0.0,-999.0,99,-99.99,,,0.00,Acu-Link.com,2013-09-26 05:11:00,
2013-09-26 01:26:00,64.8,64.5,29.72,East,90,0.0,-999.0,99,-99.99,,,0.00,Acu-Link.com,2013-09-26 05:26:00,
2013-09-26 01:41:00,64.8,64.5,29.71,NE,45,0.0,-999.0,99,-99.99,,,0.00,Acu-Link.com,2013-09-26 05:41:00,
2013-09-26 01:56:00,64.6,64.3,29.71,NE,45,0.0,-999.0,99,-99.99,,,0.00,Acu-Link.com,2013-09-26 05:56:00,
2013-09-26 02:11:00,64.6,64.3,29.71,NE,45,0.0,-999.0,99,-99.99,,,0.00,Acu-Link.com,2013-09-26 06:11:00,
2013-09-26 02:27:00,64.6,64.3,29.72,NE,45,0.0,-999.0,99,-99.99,,,0.00,Acu-Link.com,2013-09-26 06:27:00,
2013-09-26 02:42:00,64.6,64.3,29.72,NE,45,0.0,-999.0,99,-99.99,,,0.00,Acu-Link.com,2013-09-26 06:42:00,
2013-09-26 02:57:00,64.6,64.3,29.71,NE,45,0.0,-999.0,99,-99.99,,,0.00,Acu-Link.com,2013-09-26 06:57:00,
2013-09-26 03:12:00,64.6,64.3,29.72,NE,45,0.0,-999.0,99,-99.99,,,0.00,Acu-Link.com,2013-09-26 07:12:00,
2013-09-26 03:27:00,64.6,64.3,29.72,NE,45,0.0,-999.0,99,-99.99,,,0.00,Acu-Link.com,2013-09-26 07:27:00,
2013-09-26 03:42:00,64.6,64.3,29.72,South,180,0.0,-999.0,99,-99.99,,,0.00,Acu-Link.com,2013-09-26 07:42:00,
2013-09-26 03:57:00,64.6,64.3,29.72,South,180,0.0,-999.0,99,-99.99,,,0.00,Acu-Link.com,2013-09-26 07:57:00,
2013-09-26 04:12:00,64.6,64.3,29.72,South,180,0.0,-999.0,99,-99.99,,,0.00,Acu-Link.com,2013-09-26 08:12:00,
2013-09-26 04:27:00,64.6,64.3,29.72,South,180,0.0,-999.0,99,-99.99,,,0.00,Acu-Link.com,2013-09-26 08:27:00,
2013-09-26 04:43:00,64.6,64.3,29.71,South,180,0.0,-999.0,99,-99.99,,,0.00,Acu-Link.com,2013-09-26 08:43:00,
2013-09-26 04:58:00,64.6,64.3,29.71,SE,135,0.0,-999.0,99,-99.99,,,0.00,Acu-Link.com,2013-09-26 08:58:00,
2013-09-26 05:14:00,64.6,64.3,29.71,SSE,157,0.0,-999.0,99,-99.99,,,0.00,Acu-Link.com,2013-09-26 09:14:00,
2013-09-26 05:30:00,64.6,64.3,29.72,East,90,0.0,-999.0,99,-99.99,,,0.00,Acu-Link.com,2013-09-26 09:30:00,
2013-09-26 05:45:00,64.4,64.1,29.72,SSE,157,0.0,-999.0,99,-99.99,,,0.00,Acu-Link.com,2013-09-26 09:45:00,
2013-09-26 06:01:00,64.2,63.9,29.73,ESE,112,0.0,-999.0,99,-99.99,,,0.00,Acu-Link.com,2013-09-26 10:01:00,
2013-09-26 06:16:00,64.2,63.9,29.73,ESE,112,0.0,-999.0,99,-99.99,,,0.00,Acu-Link.com,2013-09-26 10:16:00,
2013-09-26 06:31:00,64.2,63.9,29.73,ESE,112,0.0,-999.0,99,-99.99,,,0.00,Acu-Link.com,2013-09-26 10:31:00,
2013-09-26 06:47:00,64.2,63.9,29.74,South,180,0.0,-999.0,99,-99.99,,,0.00,Acu-Link.com,2013-09-26 10:47:00,
2013-09-26 07:02:00,64.2,63.9,29.75,South,180,0.0,-999.0,99,-99.99,,,0.00,Acu-Link.com,2013-09-26 11:02:00,
2013-09-26 07:18:00,64.2,63.9,29.75,South,180,0.0,-999.0,99,-99.99,,,0.00,Acu-Link.com,2013-09-26 11:18:00,
2013-09-26 07:33:00,64.2,63.9,29.76,South,180,0.0,-999.0,99,-99.99,,,0.00,Acu-Link.com,2013-09-26 11:33:00,
2013-09-26 07:49:00,64.2,63.9,29.77,ESE,112,0.0,-999.0,99,-99.99,,,0.00,Acu-Link.com,2013-09-26 11:49:00,
2013-09-26 08:04:00,64.4,64.1,29.78,ENE,67,0.0,-999.0,99,-99.99,,,0.00,Acu-Link.com,2013-09-26 12:04:00,
2013-09-26 08:19:00,64.6,64.3,29.79,ENE,67,0.0,-999.0,99,-99.99,,,0.00,Acu-Link.com,2013-09-26 12:19:00,
2013-09-26 08:34:00,64.9,64.6,29.80,South,180,0.0,-999.0,99,-99.99,,,0.00,Acu-Link.com,2013-09-26 12:34:00,
2013-09-26 08:49:00,65.5,65.2,29.79,SSE,157,0.0,-999.0,99,-99.99,,,0.00,Acu-Link.com,2013-09-26 12:49:00,
2013-09-26 09:04:00,66.2,65.9,29.80,SE,135,0.0,-999.0,99,-99.99,,,0.00,Acu-Link.com,2013-09-26 13:04:00,
2013-09-26 09:19:00,66.7,66.1,29.80,ESE,112,0.0,-999.0,98,-99.99,,,0.00,Acu-Link.com,2013-09-26 13:19:00,
2013-09-26 09:35:00,67.5,66.6,29.81,SE,135,0.0,-999.0,97,-99.99,,,0.00,Acu-Link.com,2013-09-26 13:35:00,
2013-09-26 09:50:00,68.4,66.6,29.81,WNW,292,1.1,-999.0,94,-99.99,,,0.00,Acu-Link.com,2013-09-26 13:50:00,
2013-09-26 10:05:00,69.6,67.5,29.81,South,180,0.0,-999.0,93,-99.99,,,0.00,Acu-Link.com,2013-09-26 14:05:00,
2013-09-26 10:20:00,69.8,67.7,29.82,NE,45,0.0,-999.0,93,-99.99,,,0.00,Acu-Link.com,2013-09-26 14:20:00,
2013-09-26 10:35:00,70.7,67.9,29.81,SSE,157,0.0,-999.0,91,-99.99,,,0.00,Acu-Link.com,2013-09-26 14:35:00,
2013-09-26 10:50:00,70.5,68.1,29.82,SSE,157,0.0,-999.0,92,-99.99,,,0.00,Acu-Link.com,2013-09-26 14:50:00,
2013-09-26 11:05:00,70.9,68.1,29.82,ESE,112,0.0,-999.0,91,-99.99,,,0.00,Acu-Link.com,2013-09-26 15:05:00,
2013-09-26 11:20:00,70.9,67.8,29.82,NNE,22,0.0,-999.0,90,-99.99,,,0.00,Acu-Link.com,2013-09-26 15:20:00,
2013-09-26 11:35:00,72.1,67.0,29.82,West,270,0.0,-999.0,84,-99.99,,,0.00,Acu-Link.com,2013-09-26 15:35:00,
2013-09-26 11:51:00,71.6,66.5,29.82,NE,45,0.0,-999.0,84,-99.99,,,0.00,Acu-Link.com,2013-09-26 15:51:00,
2013-09-26 12:06:00,73.8,67.9,29.82,NNW,337,1.1,-999.0,82,-99.99,,,0.00,Acu-Link.com,2013-09-26 16:06:00,
2013-09-26 12:21:00,74.7,69.5,29.82,SE,135,0.0,-999.0,84,-99.99,,,0.00,Acu-Link.com,2013-09-26 16:21:00,
2013-09-26 12:36:00,72.1,68.7,29.81,South,180,0.0,-999.0,89,-99.99,,,0.00,Acu-Link.com,2013-09-26 16:36:00,
2013-09-26 12:51:00,73.2,68.1,29.81,WNW,292,2.2,-999.0,84,-99.99,,,0.00,Acu-Link.com,2013-09-26 16:51:00,
2013-09-26 13:06:00,73.0,67.5,29.81,NNE,22,2.2,-999.0,83,-99.99,,,0.00,Acu-Link.com,2013-09-26 17:06:00,
2013-09-26 13:21:00,76.1,68.4,29.81,West,270,3.2,-999.0,77,-99.99,,,0.00,Acu-Link.com,2013-09-26 17:21:00,
2013-09-26 13:36:00,76.5,67.2,29.80,West,270,2.7,-999.0,73,-99.99,,,0.00,Acu-Link.com,2013-09-26 17:36:00,
2013-09-26 13:51:00,77.5,67.3,29.79,NW,315,1.1,-999.0,71,-99.99,,,0.00,Acu-Link.com,2013-09-26 17:51:00,
2013-09-26 14:07:00,79.0,67.5,29.79,North,0,2.2,-999.0,68,-99.99,,,0.00,Acu-Link.com,2013-09-26 18:07:00,
2013-09-26 14:22:00,77.9,67.7,29.78,NE,45,0.0,-999.0,71,-99.99,,,0.00,Acu-Link.com,2013-09-26 18:22:00,
2013-09-26 14:37:00,78.6,65.8,29.78,WSW,247,0.0,-999.0,65,-99.99,,,0.00,Acu-Link.com,2013-09-26 18:37:00,
2013-09-26 14:52:00,78.6,67.6,29.77,WNW,292,2.7,-999.0,69,-99.99,,,0.00,Acu-Link.com,2013-09-26 18:52:00,
2013-09-26 15:07:00,79.7,67.8,29.77,SW,225,0.0,-999.0,67,-99.99,,,0.00,Acu-Link.com,2013-09-26 19:07:00,
2013-09-26 15:22:00,79.3,66.5,29.77,WNW,292,1.1,-999.0,65,-99.99,,,0.00,Acu-Link.com,2013-09-26 19:22:00,
2013-09-26 15:37:00,79.7,66.4,29.76,WNW,292,2.7,-999.0,64,-99.99,,,0.00,Acu-Link.com,2013-09-26 19:37:00,
2013-09-26 15:52:00,79.9,67.1,29.76,WNW,292,1.7,-999.0,65,-99.99,,,0.00,Acu-Link.com,2013-09-26 19:52:00,
2013-09-26 16:07:00,80.1,68.1,29.76,NNW,337,2.2,-999.0,67,-99.99,,,0.00,Acu-Link.com,2013-09-26 20:07:00,
2013-09-26 16:23:00,80.6,66.8,29.76,WNW,292,1.1,-999.0,63,-99.99,,,0.00,Acu-Link.com,2013-09-26 20:23:00,
2013-09-26 16:38:00,80.4,67.5,29.76,SW,225,0.0,-999.0,65,-99.99,,,0.00,Acu-Link.com,2013-09-26 20:38:00,
2013-09-26 16:53:00,80.2,67.3,29.76,SW,225,0.0,-999.0,65,-99.99,,,0.00,Acu-Link.com,2013-09-26 20:53:00,
2013-09-26 17:08:00,79.9,67.9,29.76,SW,225,0.0,-999.0,67,-99.99,,,0.00,Acu-Link.com,2013-09-26 21:08:00,
2013-09-26 17:23:00,78.1,67.1,29.76,West,270,0.0,-999.0,69,-99.99,,,0.00,Acu-Link.com,2013-09-26 21:23:00,
2013-09-26 17:38:00,80.8,68.4,29.76,South,180,0.0,-999.0,66,-99.99,,,0.00,Acu-Link.com,2013-09-26 21:38:00,
2013-09-26 17:53:00,81.5,68.6,29.76,South,180,0.0,-999.0,65,-99.99,,,0.00,Acu-Link.com,2013-09-26 21:53:00,
2013-09-26 18:08:00,85.8,69.3,29.77,ESE,112,0.0,-999.0,58,-99.99,,,0.00,Acu-Link.com,2013-09-26 22:08:00,
2013-09-26 18:23:00,81.5,68.6,29.77,ESE,112,0.0,-999.0,65,-99.99,,,0.00,Acu-Link.com,2013-09-26 22:23:00,
2013-09-26 18:38:00,77.7,67.5,29.77,South,180,0.0,-999.0,71,-99.99,,,0.00,Acu-Link.com,2013-09-26 22:38:00,
2013-09-26 18:54:00,75.7,66.8,29.78,South,180,0.0,-999.0,74,-99.99,,,0.00,Acu-Link.com,2013-09-26 22:54:00,
2013-09-26 19:09:00,73.2,65.9,29.78,South,180,0.0,-999.0,78,-99.99,,,0.00,Acu-Link.com,2013-09-26 23:09:00,
2013-09-26 19:24:00,71.4,64.5,29.78,South,180,0.0,-999.0,79,-99.99,,,0.00,Acu-Link.com,2013-09-26 23:24:00,
2013-09-26 19:39:00,69.8,64.7,29.78,South,180,0.0,-999.0,84,-99.99,,,0.00,Acu-Link.com,2013-09-26 23:39:00,
2013-09-26 19:54:00,68.4,64.0,29.78,South,180,0.0,-999.0,86,-99.99,,,0.00,Acu-Link.com,2013-09-26 23:54:00,
2013-09-26 20:24:00,66.0,62.7,29.79,South,180,0.0,-999.0,89,-99.99,,,0.00,Acu-Link.com,2013-09-27 00:24:00,
2013-09-26 20:39:00,65.1,62.4,29.79,South,180,0.0,-999.0,91,-99.99,,,0.00,Acu-Link.com,2013-09-27 00:39:00,
2013-09-26 20:54:00,64.6,61.9,29.80,South,180,0.0,-999.0,91,-99.99,,,0.00,Acu-Link.com,2013-09-27 00:54:00,
2013-09-26 21:10:00,63.9,61.2,29.80,South,180,0.0,-999.0,91,-99.99,,,0.00,Acu-Link.com,2013-09-27 01:10:00,
2013-09-26 21:25:00,63.5,61.7,29.81,NNW,337,0.0,-999.0,94,-99.99,,,0.00,Acu-Link.com,2013-09-27 01:25:00,
2013-09-26 21:40:00,63.0,61.5,29.82,North,0,0.0,-999.0,95,-99.99,,,0.00,Acu-Link.com,2013-09-27 01:40:00,
2013-09-26 21:55:00,62.8,61.9,29.83,NW,315,0.0,-999.0,97,-99.99,,,0.00,Acu-Link.com,2013-09-27 01:55:00,
2013-09-26 22:10:00,62.6,62.0,29.83,NW,315,0.0,-999.0,98,-99.99,,,0.00,Acu-Link.com,2013-09-27 02:10:00,
2013-09-26 22:25:00,62.4,61.8,29.83,NW,315,0.0,-999.0,98,-99.99,,,0.00,Acu-Link.com,2013-09-27 02:25:00,
2013-09-26 22:40:00,62.1,61.2,29.84,NW,315,0.0,-999.0,97,-99.99,,,0.00,Acu-Link.com,2013-09-27 02:40:00,
2013-09-26 22:55:00,62.2,61.6,29.84,ESE,112,0.0,-999.0,98,-99.99,,,0.00,Acu-Link.com,2013-09-27 02:55:00,
2013-09-26 23:10:00,62.4,62.1,29.84,SSE,157,0.0,-999.0,99,-99.99,,,0.00,Acu-Link.com,2013-09-27 03:10:00,
2013-09-26 23:26:00,62.2,61.9,29.85,SE,135,0.0,-999.0,99,-99.99,,,0.00,Acu-Link.com,2013-09-27 03:26:00,
2013-09-26 23:41:00,62.1,61.8,29.85,SE,135,0.0,-999.0,99,-99.99,,,0.00,Acu-Link.com,2013-09-27 03:41:00,
2013-09-26 23:56:00,61.9,61.6,29.85,SSE,157,0.0,-999.0,99,-99.99,,,0.00,Acu-Link.com,2013-09-27 03:56:00,